Location: Alphen
(52.1351°N, 4.6549°E)
Time: 01:37:40
(UTC+00:00)

SAR-Lupe-4 - Pass Details

Date: 27 January 2021
Orbit: 480 x 484 km, 98.2° (Epoch: 26 February)

Event Time Altitude Azimuth Distance (km) Brightness Sun altitude
Rises 05:43:18 0° 185° (S) 2,542 7.3 -16.1°
Reaches altitude 10° 05:45:29 10° 194° (SSW) 1,667 6.2 -15.7°
Maximum altitude 05:48:47 35° 262° (W) 810 4.2 -15.2°
Enters shadow 05:49:47 29° 296° (WNW) 921 4.4 -15.1°
